User: anonymous   Login
Location: Charleston
(38.3500°N, 81.6330°W)
Time: 18:49:10
(UTC-04:00)
Language:

Cosmos 1812 Rocket - Orbit

View from above orbital plane
View from above orbital plane
View from above satellite
View from above satellite

Ground track
Ground track

The orbit data is extracted from the following two-line orbital elements,

1 17296U 87003B   17179.49442186 +.00000066 +00000-0 +51016-5 0  9996
2 17296 082.5288 014.2824 0019047 178.9622 181.1636 14.83188037623704
Epoch (UTC): 28 June 2017 11:51:58
Eccentricity: 0.0019047
inclination: 82.5288°
perigee height: 606 km
apogee height: 632 km
right ascension of ascending node: 14.2824°
argument of perigee: 178.9622°
revolutions per day: 14.83188037
mean anomaly at epoch: 181.1636°
orbit number at epoch: 62370

The dashed part of the orbit path shows where the satellite is in the earth's shadow,  

DLR